Regional Weather Roundup
Issued by NWS

Home | Current Version | Previous Version | Text Only | Print | Product List | Glossary On
Versions: 1 2 3 4 5 6 7 8 9 10 11 12 13 14 15 16 17 18 19 20 21 22 23 24 25 26 27 28 29 30 31 32 33 34 35 36 37 38 39 40 41 42 43 44 45 46 47 48 49 50
000
ASUS43 KMPX 261810
RWRMN
WEATHER ROUNDUP FOR MINNESOTA
NATIONAL WEATHER SERVICE TWIN CITIES/CHANHASSEN MN
100 PM CDT SUN APR 26 2015


NOTE: "FAIR" INDICATES FEW OR NO CLOUDS BELOW 12,000 FEET WITH NO
SIGNIFICANT WEATHER AND/OR OBSTRUCTIONS TO VISIBILITY. N/A MEANS
CURRENT SKY AND/OR WEATHER CONDITIONS ARE NOT AVAILABLE.

MNZ060>063-068>070-261900-
   Twin Cities Metro

CITY           SKY/WX    TMP DP  RH WIND       PRES   REMARKS
TWIN CITIES    SUNNY     56  24  29 VRB3      30.12F
6HR MIN TEMP:  37; 6HR MAX TEMP:  56;

ST PAUL        SUNNY     56  23  27 CALM      30.13F
CRYSTAL        SUNNY     57  21  24 VRB6      30.12S
BLAINE         SUNNY     57  23  26 E5        30.12F
LAKEVILLE      SUNNY     55  27  33 CALM      30.11F
EDEN PRAIRIE   SUNNY     57  24  28 VRB6      30.10F
6HR MIN TEMP:  36; 6HR MAX TEMP:  58;

SOUTH ST PAUL  SUNNY     56  25  30 NW3       30.12F
LAKE ELMO      FAIR      55  27  33 NE6       30.13F
$$
MNZ001>005-007-008-013>017-022>024-027-028-261900-
   Northwest Minnesota

CITY           SKY/WX    TMP DP  RH WIND       PRES   REMARKS
BEMIDJI        SUNNY     56  23  27 SE6       30.15F
HALLOCK        SUNNY     64  16  15 S9G18     30.13F
ROSEAU         SUNNY     61  27  27 CALM      30.15S
WARROAD        SUNNY     48  30  49 NE13      30.17S
THIEF RVR FALL SUNNY     61  25  25 SE5       30.15S
CROOKSTON      SUNNY     61  25  25 SE7       30.15
FOSSTON        SUNNY     63  28  27 NE5       30.14F
DETROIT LAKES  SUNNY     57  23  26 S5        30.14F
MOORHEAD       SUNNY     61  19  20 S5        30.14S
PARK RAPIDS    SUNNY     58  17  20 VRB3G17   30.14S
MAHNOMEN       FAIR      59  23  25 CALM      30.13F
$$
MNZ006-009>011-018-025>026-261900-
   North Central Minnesota

CITY           SKY/WX    TMP DP  RH WIND       PRES   REMARKS
BAUDETTE       SUNNY     59  21  23 SE5       30.16S
FLAG ISLAND    SUNNY     45  28  53 S6        30.18S
INTL FALLS     SUNNY     54  17  23 NE10      30.18S
6HR MIN TEMP:  28; 6HR MAX TEMP:  55;

WASKISH        SUNNY     55  28  35 CALM      30.16F
BIG FORK       SUNNY     59  14  17 NE6       30.16F
LONGVILLE      SUNNY     57  14  18 SW3       30.15S
GRAND RAPIDS   SUNNY     54  18  24 N9        30.16S
CRANE LAKE     SUNNY     52  12  20 CALM      30.19S
ORR            SUNNY     55   9  15 CALM      30.14S
COOK           SUNNY     54  14  20 N3        30.16F
WALKER         FAIR      53  18  24 SE6       30.16S
$$
MNZ012-019>021-037-261900-
   Northeast Minnesota

CITY           SKY/WX    TMP DP  RH WIND       PRES   REMARKS
DULUTH         SUNNY     50  21  32 SE8       30.16S
6HR MIN TEMP:  34; 6HR MAX TEMP:  50;

ELY            SUNNY     54  18  24 N7        30.15F
HIBBING        SUNNY     57  14  18 MISG      30.15S
EVELETH        SUNNY     54  10  17 NE3       30.16S
DULUTH HARBOR  SUNNY     41  30  65 NE6       30.21S
TWO HARBORS    SUNNY     54  28  37 E10       30.16S
SILVER BAY     SUNNY     52  25  35 SE7       30.16S
GRAND MARAIS     N/A     39  31  72 SW5       30.20S
G MARAIS ARPRT SUNNY     46  23  39 SE9       30.16S
$$
MNZ029>031-032-039>041-046>048-054>057-064-261900-
   West Central Minnesota

CITY           SKY/WX    TMP DP  RH WIND       PRES   REMARKS
FERGUS FALLS   SUNNY     59  16  18 CALM      30.14S
WHEATON        SUNNY     57  30  35 E10       30.14F
MORRIS         SUNNY     61  21  21 E10       30.11F
ALEXANDRIA     SUNNY     56  20  24 E8        30.14S
ELBOW LAKE     FAIR      57  24  28 E8        30.13S
WADENA         SUNNY     57  25  28 NE8       30.13F
GLENWOOD       SUNNY     57  25  28 NE14      30.13S
APPLETON       SUNNY     61  23  23 NE3       30.12S
BENSON         SUNNY     61  16  17 SE9       30.12S
ORTONVILLE     SUNNY     57  27  30 NE3       30.12S
MADISON        SUNNY     59  27  29 E9        30.11S
WILLMAR        FAIR      57  28  33 NE10      30.13S
$$
MNZ033>034-036-042>043-049>051-058-059-261900-
   Central Minnesota

CITY           SKY/WX    TMP DP  RH WIND       PRES   REMARKS
ST CLOUD       SUNNY     56  22  26 E9        30.13S
6HR MIN TEMP:  31; 6HR MAX TEMP:  56;

SAUK CENTRE    FAIR      55  20  25 NE9       30.13S
PAYNESVILLE    SUNNY     52  22  30 N7G16     30.13S
AITKIN         SUNNY     57   3  11 NE9G17    30.14S
PINE RIVER     SUNNY     55  25  30 E9        30.17F
BRAINERD       SUNNY     55  17  22 NE7       30.15S
STAPLES        SUNNY     55  12  18 E9        30.14S
LONG PRAIRIE   FAIR      54  21  28 NE12      30.14S
LITTLE FALLS   SUNNY     54  14  20 NE7       30.14S
LITCHFIELD     SUNNY     57  21  24 NE6       30.12S
BUFFALO        SUNNY     55  23  28 E8        30.13S
MAPLE LAKE     SUNNY     57  27  32 E7        30.13S
$$
MNZ037-044-045-052-053-261900-
   East Central Minnesota

CITY           SKY/WX    TMP DP  RH WIND       PRES   REMARKS
PRINCETON      SUNNY     57  21  24 E8        30.13F
MORA           SUNNY     54  23  30 SE6       30.15F
CAMBRIDGE      SUNNY     57  34  41 E5        30.12F
RUSH CITY      SUNNY     56  21  26 CALM      30.13F
MOOSE LAKE     SUNNY     54  21  28 CALM      30.13F
HINCKLEY       FAIR      55  23  28 E7        30.14F
CLOQUET        SUNNY     54  10  17 E8        30.16S
MCGREGOR       SUNNY     55  18  22 E6        30.16S
$$
MNZ071>073-080-081-089-090-097-098-261900-
   Southwest Minnesota

CITY           SKY/WX    TMP DP  RH WIND       PRES   REMARKS
MONTEVIDEO     SUNNY     63  23  22 SE6       30.11F
GRANITE FALLS  SUNNY     60  26  27 NE6       30.11F
CANBY          SUNNY     59  29  33 NE7       30.12S
MARSHALL       SUNNY     59  30  33 NE7       30.10F
REDWOOD FALLS  SUNNY     62  21  20 MISG      30.10R
OLIVIA         SUNNY     57  18  21 E7        30.09F
PIPESTONE      SUNNY     59  25  27 E5        30.08S
WINDOM         SUNNY     59  27  29 N5        30.09S
WORTHINGTON    SUNNY     59  30  33 NE8G16    30.08S
JACKSON        SUNNY     61  27  27 NE8       30.08F
TRACY          SUNNY     61  31  32 NE9       30.10S
SLAYTON        SUNNY     59  27  29 CALM      30.09F
$$
MNZ065>067-074>077-082>085-091>093-261900-
   South Central Minnesota

CITY           SKY/WX    TMP DP  RH WIND       PRES   REMARKS
MANKATO        SUNNY     57  27  30 CALM      30.10S
NEW ULM        SUNNY     57  23  26 NE8       30.09S
ST JAMES       SUNNY     61  27  27 NE3       30.09F
FAIRMONT       SUNNY     61  30  31 NE5       30.08S
GLENCOE        SUNNY     57  28  32 N6        30.10F
FARIBAULT      SUNNY     57  27  30 CALM      30.11S
OWATONNA       SUNNY     55  25  30 CALM      30.10F
WASECA         SUNNY     57  28  33 E5        30.11S
ALBERT LEA     SUNNY     55  25  30 CALM      30.09S
$$
MNZ078>079-086>088-094>096-261900-
   Southeast Minnesota

CITY           SKY/WX    TMP DP  RH WIND       PRES   REMARKS
ROCHESTER      SUNNY     53  26  35 CALM      30.11F
6HR MIN TEMP:  35; 6HR MAX TEMP:  54;

RED WING       SUNNY     55  23  28 S5        30.11S
STANTON        SUNNY     58  24  27 NE8       30.10F
DODGE CENTER   SUNNY     55  28  35 E7        30.11F
WINONA         SUNNY     55  28  35 NE5       30.11F
AUSTIN         SUNNY     54  28  37 E6        30.10S
PRESTON        SUNNY     53  27  36 NE5       30.10S
$$
ABBREVIATIONS USED IN REMARKS
   TC - TEMPERATURES IN CELSIUS
  WCI - WIND CHILL INDEX
   HX - HEAT INDEX
  VSB - VISIBILITY
$$


USA.gov is the U.S. government's official web portal to all federal, state and local government web resources and services.